Location: ????????
(55.3155°N, 39.2900°E)
Time: 20:49:41
(UTC+00:00)

CZ-2C R/B - Pass Details

Date: 14 April 2024
Orbit: 703 x 904 km, 98.2° (Epoch: 17 May)

Event Time Altitude Azimuth Distance (km) Brightness Sun altitude
Rises 01:27:57 0° 10° (N) 3,178 6.8 -7.7°
Reaches altitude 10° 01:30:29 10° 358° (N) 2,277 5.8 -7.4°
Maximum altitude 01:34:36 27° 303° (WNW) 1,467 4.2 -6.9°
Drops below altitude 10° 01:38:53 10° 247° (WSW) 2,367 4.9 -6.3°
Enters shadow 01:39:31 - 244° (WSW) 2,581 5.0 -6.3°
